Location: Unspecified
(0.0000°N, 0.0000°E)
Time: 06:14:46
(UTC+00:00)

Fuji - Pass Details

Date: 03 December 2022
Orbit: 1479 x 1496 km, 50.0° (Epoch: 28 January)

Event Time Altitude Azimuth Distance (km) Brightness Sun altitude
Rises 18:10:34 0° 318° (NW) 4,585 ? -4.8°
Reaches altitude 10° 18:13:34 10° 317° (NW) 3,608 ? -5.5°
Maximum altitude 18:22:34 72° 234° (SW) 1,545 ? -7.6°
Drops below altitude 10° 18:31:39 10° 150° (SSE) 3,629 ? -9.7°
Sets 18:34:41 0° 148° (SSE) 4,613 ? -10.4°
